Powrót do katalogu

DMSP 5D-2 F13 DEB

AktywnySSO
NORAD 40490·DEBRIS·🇺🇸 United States

Wystrzelony Mar 24, 1995 z Vandenberg Space Force Base

Loading…

Następne Przeloty (najbliższe 24 godziny)

TLE

ŚwieżeSource: Space-Track

Epoka: Sep 14, 2026, 04:19 UTC

1 40490U 95015CD  26257.18009003  .00001790  00000-0  13013-2 0  9997
2 40490  98.7778  28.6445 0153875 289.1249  69.3307 13.92060006581018

Śledź DMSP 5D-2 F13 DEB w czasie rzeczywistym z AllMySat

Download on the App Store